Home > Weather > Kassel > Past weeks

Flag for Germany Past Weather in Kassel, Hesse, Germany — Yesterday and Last 2 Weeks

Now
66 °F

Broken clouds.


Feels Like: 66 °F
Forecast: 56 / 74 °F
Wind: 15 mph from Southwest

Location: Kassel / Calden

Current Time: Jun 30, 2016 at 12:34:06 PM

Latest Report: Jun 30, 2016 at 11:50 AM


Visibility: N/A

Pressure: 29.92 "Hg

Humidity: 68%

Dew Point: 55 °F

Location of KasselLocation

Past Weather in Kassel — Graph

°F

Kassel Temperature Yesterday

Maximum temperature yesterday: 72 °F (at 5:20 PM)
Minimum temperature yesterday: 59 °F (at 8:20 AM)
Average temperature yesterday: 67 °F

High & Low Weather Summary for the Past Weeks

 TemperatureHumidityPressure
High90 °F (Jun 23, 3:50 PM)100% (Jun 16, 7:20 AM)30.24 "Hg (Jun 16, 7:20 AM)
Low50 °F (Jun 20, 7:20 AM)16% (Jun 28, 6:20 AM)29.53 "Hg (Jun 15, 11:20 AM)
Average66 °F71%29.99 "Hg
* Reported Jun 15 11:20 AM — Jun 30 11:20 AM, Kassel, Weather by CustomWeather, © 2016

Note: Actual official high and low records may vary slightly from our data, if they occured in-between our weather recording intervals... More about our weather records

Advertising

Kassel Weather History for the Previous 24 Hours

Scroll right to see more
 ConditionsComfort  
Time TempWeatherWind HumidityBarometerVisibility
11:20 AM
Thu, Jun 30
64 °FBroken clouds.12 mph73%29.92 "HgN/A
10:50 AM63 °FCloudy.10 mph77%29.92 "HgN/A
10:20 AM63 °FCloudy.9 mph77%29.95 "HgN/A
9:50 AM63 °FBroken clouds.6 mph83%29.92 "HgN/A
9:20 AM59 °FOvercast.2 mph88%29.92 "HgN/A
8:50 AM59 °FOvercast.6 mph82%29.92 "HgN/A
8:20 AM59 °FMore clouds than sun.5 mph88%29.92 "HgN/A
7:50 AM59 °FLight rain. Overcast.6 mph82%29.92 "HgN/A
7:20 AM59 °FOvercast.2 mph82%29.92 "HgN/A
9:20 PM
Wed, Jun 29
63 °FSunny.3 mph68%29.92 "Hg10 mi
8:50 PM64 °FSunny.6 mph60%29.92 "Hg10 mi
8:20 PM66 °FSunny.6 mph56%29.92 "Hg10 mi
7:50 PM68 °FSunny.8 mph49%29.92 "Hg10 mi
7:20 PM68 °FSunny.9 mph49%29.92 "Hg10 mi
6:50 PM68 °FSunny.10 mph53%29.89 "Hg10 mi
6:20 PM68 °FPassing clouds.10 mph49%29.89 "HgN/A
5:50 PM70 °FPassing clouds.8 mph50%29.89 "HgN/A
5:20 PM72 °FPassing clouds.8 mph44%29.92 "HgN/A
4:50 PM68 °FSunny.10 mph53%29.92 "Hg10 mi
4:20 PM70 °FPassing clouds.12 mph53%29.92 "HgN/A
3:50 PM70 °FPassing clouds.9 mph46%29.92 "HgN/A
3:20 PM70 °FScattered clouds.10 mph46%29.92 "HgN/A
2:50 PM70 °FPassing clouds.10 mph43%29.92 "HgN/A
2:20 PM68 °FPassing clouds.9 mph49%29.92 "HgN/A
1:50 PM68 °FPassing clouds.9 mph56%29.92 "HgN/A
1:20 PM68 °FScattered clouds.12 mph56%29.92 "HgN/A
12:50 PM68 °FScattered clouds.14 mph49%29.92 "HgN/A
12:20 PM68 °FSunny.16 mph49%29.92 "Hg10 mi
Weather by CustomWeather, © 2016

See weather overviewHow to use our weather pages